This is the latest recevied weather packets stored in our database for station/object N4BBA. If no packets are shown the sender has not sent any weather packets the latest 1 day(s).
| Time | Temp. | Humidity | Pressure | Rain* | Wind** | Luminosity | Snow |
|---|---|---|---|---|---|---|---|
| 1777997690 | 24.44° C | 54% | 1016.5 hPa | 0 mm | 1.79 m/s, 141° | 795 W/m² | - |
| 1777997388 | 23.89° C | 55% | 1016.8 hPa | 0 mm | 1.34 m/s, 201° | 784 W/m² | - |
| 1777997086 | 23.89° C | 56% | 1017 hPa | 0 mm | 2.24 m/s, 173° | 787 W/m² | - |
| 1777996782 | 24.44° C | 56% | 1016.8 hPa | 0 mm | 2.24 m/s, 236° | 788 W/m² | - |
| 1777996479 | 24.44° C | 57% | 1016.9 hPa | 0 mm | 1.34 m/s, 216° | 765 W/m² | - |
| 1777996175 | 23.89° C | 57% | 1017 hPa | 0 mm | 1.79 m/s, 221° | 774 W/m² | - |
| 1777995872 | 23.89° C | 58% | 1017.1 hPa | 0 mm | 2.24 m/s, 215° | 771 W/m² | - |
| 1777995568 | 23.89° C | 59% | 1017 hPa | 0 mm | 1.79 m/s, 104° | 761 W/m² | - |
| 1777995266 | 23.89° C | 61% | 1017.1 hPa | 0 mm | 2.68 m/s, 100° | 753 W/m² | - |
| 1777994962 | 23.33° C | 61% | 1017 hPa | 0 mm | 1.79 m/s, 193° | 745 W/m² | - |
| 1777994660 | 23.33° C | 61% | 1017.1 hPa | 0 mm | 1.79 m/s, 185° | 737 W/m² | - |
| 1777994359 | 23.33° C | 61% | 1017.3 hPa | 0 mm | 1.79 m/s, 190° | 725 W/m² | - |
| 1777994056 | 22.78° C | 62% | 1017.1 hPa | 0 mm | 2.24 m/s, 199° | 716 W/m² | - |
| 1777993753 | 23.33° C | 61% | 1017.1 hPa | 0 mm | 2.68 m/s, 203° | 706 W/m² | - |
| 1777993451 | 22.22° C | 63% | 1017.2 hPa | 0 mm | 1.79 m/s, 190° | 698 W/m² | - |
| 1777993150 | 22.22° C | 63% | 1017.2 hPa | 0 mm | 2.24 m/s, 226° | 687 W/m² | - |
| 1777992849 | 22.22° C | 63% | 1017.3 hPa | 0 mm | 0.89 m/s, 168° | 673 W/m² | - |
| 1777992546 | 22.22° C | 63% | 1017.3 hPa | 0 mm | 1.79 m/s, 222° | 666 W/m² | - |
| 1777992244 | 22.22° C | 65% | 1017.2 hPa | 0 mm | 2.24 m/s, 206° | 652 W/m² | - |
| 1777991941 | 21.67° C | 65% | 1017.2 hPa | 0 mm | 2.24 m/s, 174° | 640 W/m² | - |
| 1777991639 | 21.67° C | 65% | 1017.1 hPa | 0 mm | 1.79 m/s, 220° | 629 W/m² | - |
| 1777991335 | 21.11° C | 66% | 1017 hPa | 0 mm | 2.24 m/s, 207° | 616 W/m² | - |
| 1777991033 | 21.11° C | 67% | 1016.8 hPa | 0 mm | 2.24 m/s, 259° | 602 W/m² | - |
| 1777990730 | 21.11° C | 67% | 1017.3 hPa | 0 mm | 3.13 m/s, 250° | 588 W/m² | - |
| 1777990427 | 21.11° C | 67% | 1017.1 hPa | 0 mm | 2.68 m/s, 219° | 574 W/m² | - |
* Rain latest hour (hover to see other rain measurements)
** Current wind speed in m/s (hover to see current wind gust speed)